When you browse on this site, cookies collect data to enhance your experience and personalize the content and advertising you see.
Visit our Privacy Policy to learn more. By continuing to use the site, you agree to this use of cookies and data.
  • In Lithuania
  • List of Countries
  • For 7 days
  • Water Temperature
  • Weather Map
  • Weather Widgets
  • user-avatar
    Login

    Hourly Weather Novy Jicin

    Today, 16 September, Monday

    Time Temperature Precipitation Wind Pressure Humidity
    00:00 +14°C° 0 mm 2 mps 736 mmHg 78%
    01:00 +14°C° 0 mm 2 mps 736 mmHg 80%
    02:00 +14°C° 0 mm 2 mps 735 mmHg 82%
    03:00 +14°C° 0 mm 2 mps 735 mmHg 85%
    04:00 +13°C° 0 mm 2 mps 735 mmHg 87%
    05:00 +14°C° 0 mm 1 mps 735 mmHg 86%
    06:00 +15°C° 0 mm 1 mps 735 mmHg 84%
    07:00 +15°C° 0 mm 1 mps 735 mmHg 82%
    08:00 +18°C° 0 mm 1 mps 735 mmHg 77%
    09:00 +19°C° 0 mm 1 mps 735 mmHg 72%
    10:00 +20°C° 0 mm 1 mps 735 mmHg 67%
    11:00 +19°C° 0 mm 2 mps 735 mmHg 68%
    12:00 +19°C° 0 mm 2 mps 735 mmHg 68%
    13:00 +20°C° 0 mm 2 mps 734 mmHg 69%
    14:00 +20°C° 0 mm 2 mps 734 mmHg 70%
    15:00 +20°C° 0 mm 2 mps 734 mmHg 71%
    16:00 +20°C° 0 mm 3 mps 734 mmHg 72%
    17:00 +18°C° 0.1 mm 2 mps 734 mmHg 77%
    18:00 +17°C° 0.1 mm 2 mps 734 mmHg 82%
    19:00 +15°C° 0.1 mm 1 mps 734 mmHg 87%
    20:00 +15°C° 0.9 mm 1 mps 733 mmHg 90%
    21:00 +14°C° 0.9 mm 1 mps 733 mmHg 93%
    22:00 +13°C° 0.9 mm 0 mps 733 mmHg 96%
    23:00 +14°C° 0.5 mm 1 mps 733 mmHg 96%

    Tomorrow, 17 September, Tuesday

    Time Temperature Precipitation Wind Pressure Humidity
    00:00 +14°C° 0.5 mm 1 mps 733 mmHg 96%
    01:00 +14°C° 0.5 mm 1 mps 733 mmHg 96%
    02:00 +14°C° 0 mm 1 mps 733 mmHg 95%
    03:00 +13°C° 0 mm 1 mps 733 mmHg 95%
    04:00 +13°C° 0 mm 1 mps 732 mmHg 95%
    05:00 +13°C° 0 mm 1 mps 732 mmHg 93%
    06:00 +13°C° 0 mm 1 mps 732 mmHg 92%
    07:00 +13°C° 0 mm 1 mps 733 mmHg 91%
    08:00 +13°C° 0 mm 1 mps 733 mmHg 86%
    09:00 +14°C° 0 mm 1 mps 733 mmHg 82%
    10:00 +15°C° 0 mm 1 mps 733 mmHg 77%
    11:00 +16°C° 0 mm 3 mps 732 mmHg 71%
    12:00 +17°C° 0 mm 4 mps 732 mmHg 65%
    13:00 +17°C° 0 mm 5 mps 732 mmHg 58%
    14:00 +16°C° 0 mm 6 mps 731 mmHg 58%
    15:00 +16°C° 0 mm 6 mps 731 mmHg 58%
    16:00 +16°C° 0 mm 6 mps 731 mmHg 58%
    17:00 +14°C° 0 mm 5 mps 731 mmHg 64%
    18:00 +13°C° 0 mm 4 mps 731 mmHg 69%
    19:00 +11°C° 0 mm 3 mps 731 mmHg 74%
    20:00 +10°C° 0 mm 4 mps 731 mmHg 75%
    21:00 +10°C° 0 mm 4 mps 732 mmHg 76%
    22:00 +8°C° 0 mm 4 mps 732 mmHg 77%
    23:00 +7°C° 0 mm 4 mps 733 mmHg 77%

    Day after tomorrow, 18 September, Wednesday

    Time Temperature Precipitation Wind Pressure Humidity
    00:00 +7°C° 0 mm 4 mps 733 mmHg 77%
    01:00 +6°C° 0 mm 4 mps 733 mmHg 76%
    02:00 +5°C° 0 mm 3 mps 734 mmHg 79%
    03:00 +5°C° 0 mm 3 mps 734 mmHg 81%
    04:00 +4°C° 0 mm 3 mps 735 mmHg 84%
    05:00 +5°C° 0 mm 3 mps 735 mmHg 82%
    06:00 +5°C° 0 mm 3 mps 736 mmHg 80%
    07:00 +6°C° 0 mm 2 mps 736 mmHg 78%
    08:00 +8°C° 0 mm 2 mps 737 mmHg 71%
    09:00 +10°C° 0 mm 3 mps 737 mmHg 65%
    10:00 +11°C° 0 mm 3 mps 738 mmHg 58%
    11:00 +12°C° 0 mm 3 mps 738 mmHg 54%
    12:00 +13°C° 0 mm 3 mps 737 mmHg 51%
    13:00 +14°C° 0 mm 3 mps 737 mmHg 48%
    14:00 +14°C° 0 mm 4 mps 737 mmHg 49%
    15:00 +13°C° 0 mm 4 mps 737 mmHg 51%
    16:00 +13°C° 0 mm 4 mps 737 mmHg 53%
    17:00 +11°C° 0 mm 4 mps 737 mmHg 61%
    18:00 +10°C° 0 mm 3 mps 737 mmHg 69%
    19:00 +8°C° 0 mm 2 mps 737 mmHg 77%
    20:00 +8°C° 0 mm 1 mps 737 mmHg 78%
    21:00 +8°C° 0 mm 1 mps 738 mmHg 80%
    22:00 +8°C° 0 mm 1 mps 738 mmHg 81%
    23:00 +7°C° 0 mm 1 mps 738 mmHg 82%

    19 September, Thursday

    Time Temperature Precipitation Wind Pressure Humidity
    00:00 +7°C° 0 mm 1 mps 738 mmHg 82%
    01:00 +7°C° 0 mm 1 mps 738 mmHg 83%
    02:00 +7°C° 0 mm 1 mps 738 mmHg 84%
    03:00 +7°C° 0 mm 1 mps 738 mmHg 84%
    04:00 +6°C° 0 mm 1 mps 738 mmHg 85%
    05:00 +7°C° 0 mm 1 mps 738 mmHg 83%
    06:00 +7°C° 0 mm 1 mps 738 mmHg 80%
    07:00 +8°C° 0 mm 1 mps 739 mmHg 78%
    08:00 +8°C° 0 mm 2 mps 739 mmHg 72%
    09:00 +9°C° 0 mm 2 mps 740 mmHg 66%
    10:00 +11°C° 0 mm 3 mps 740 mmHg 60%
    11:00 +11°C° 0.1 mm 3 mps 740 mmHg 59%
    12:00 +12°C° 0.1 mm 3 mps 740 mmHg 59%
    13:00 +12°C° 0.1 mm 3 mps 740 mmHg 58%
    14:00 +12°C° 0.2 mm 3 mps 740 mmHg 59%
    15:00 +12°C° 0.2 mm 3 mps 740 mmHg 61%
    16:00 +12°C° 0.2 mm 3 mps 740 mmHg 62%
    17:00 +10°C° 0.1 mm 3 mps 740 mmHg 68%
    18:00 +9°C° 0.1 mm 2 mps 740 mmHg 74%
    19:00 +7°C° 0.1 mm 2 mps 741 mmHg 79%
    20:00 +8°C° 0 mm 1 mps 741 mmHg 80%
    21:00 +7°C° 0 mm 1 mps 741 mmHg 81%
    22:00 +7°C° 0 mm 1 mps 742 mmHg 81%
    23:00 +7°C° 0 mm 1 mps 742 mmHg 82%

    20 September, Friday

    Time Temperature Precipitation Wind Pressure Humidity
    00:00 +7°C° 0 mm 1 mps 742 mmHg 82%
    01:00 +6°C° 0 mm 1 mps 742 mmHg 82%
    02:00 +6°C° 0 mm 1 mps 742 mmHg 84%
    03:00 +6°C° 0 mm 1 mps 742 mmHg 85%
    04:00 +4°C° 0 mm 0 mps 742 mmHg 86%
    05:00 +5°C° 0 mm 0 mps 742 mmHg 84%
    06:00 +6°C° 0 mm 0 mps 742 mmHg 81%
    07:00 +6°C° 0 mm 0 mps 742 mmHg 79%
    08:00 +9°C° 0 mm 1 mps 742 mmHg 71%
    09:00 +11°C° 0 mm 1 mps 743 mmHg 62%
    10:00 +12°C° 0 mm 1 mps 743 mmHg 54%
    11:00 +13°C° 0 mm 2 mps 743 mmHg 50%
    12:00 +14°C° 0 mm 2 mps 742 mmHg 47%
    13:00 +14°C° 0 mm 2 mps 742 mmHg 44%
    14:00 +14°C° 0 mm 2 mps 742 mmHg 45%
    15:00 +14°C° 0 mm 2 mps 741 mmHg 46%
    16:00 +14°C° 0 mm 2 mps 741 mmHg 46%
    17:00 +12°C° 0 mm 1 mps 741 mmHg 52%
    18:00 +10°C° 0 mm 1 mps 741 mmHg 58%
    19:00 +8°C° 0 mm 0 mps 741 mmHg 63%
    20:00 +8°C° 0 mm 1 mps 741 mmHg 64%
    21:00 +8°C° 0 mm 1 mps 742 mmHg 65%
    22:00 +8°C° 0 mm 1 mps 742 mmHg 66%
    23:00 +7°C° 0 mm 1 mps 742 mmHg 66%

    21 September, Saturday

    Time Temperature Precipitation Wind Pressure Humidity
    00:00 +7°C° 0 mm 1 mps 742 mmHg 67%
    01:00 +7°C° 0 mm 1 mps 741 mmHg 67%
    02:00 +7°C° 0 mm 1 mps 741 mmHg 68%
    03:00 +7°C° 0 mm 1 mps 741 mmHg 68%
    04:00 +7°C° 0 mm 1 mps 741 mmHg 68%
    05:00 +7°C° 0 mm 1 mps 741 mmHg 67%
    06:00 +8°C° 0 mm 1 mps 741 mmHg 65%
    07:00 +9°C° 0 mm 1 mps 741 mmHg 63%
    08:00 +11°C° 0 mm 1 mps 741 mmHg 58%
    09:00 +14°C° 0 mm 1 mps 742 mmHg 52%
    10:00 +15°C° 0 mm 0 mps 742 mmHg 47%
    11:00 +18°C° 0 mm 1 mps 741 mmHg 45%
    12:00 +19°C° 0 mm 1 mps 741 mmHg 43%
    13:00 +19°C° 0 mm 1 mps 741 mmHg 42%
    14:00 +19°C° 0 mm 1 mps 740 mmHg 44%
    15:00 +19°C° 0 mm 1 mps 740 mmHg 46%
    16:00 +19°C° 0 mm 1 mps 740 mmHg 48%
    17:00 +16°C° 0 mm 1 mps 740 mmHg 54%
    18:00 +14°C° 0 mm 1 mps 740 mmHg 60%
    19:00 +12°C° 0 mm 1 mps 740 mmHg 67%
    20:00 +11°C° 0 mm 1 mps 740 mmHg 68%
    21:00 +11°C° 0 mm 1 mps 740 mmHg 70%
    22:00 +10°C° 0 mm 1 mps 740 mmHg 72%
    23:00 +10°C° 0 mm 1 mps 740 mmHg 72%
    Show more